Starlink 32544

operational
NORAD ID: 61917 Int'l Des: 2024-207 Owner: SPXS Country: US Constellation: starlink
LEOCIRCULAR

关于 Starlink 32544

正在加载描述...

实时位置

正在加载3D地球...

即将过境

高度历史

Altitude vs Time

uPlot chart will show altitude changes over time

两行轨道根数

1 61917U 24207F 25352.15297501 .00027007 00000-0 98662-3 0 9996
2 61917 43.0012 22.0842 0000988 255.7441 104.3301 15.27604405 62258
Epoch: Dec 18, 2025 • Age: 12 hours

当前状态

高度 486.9 km
速度 7.62 km/s
星下点 -19.16°S, 28.38°E
发射日期 Nov 11, 2024
运行时间 1 years
类型 internet

技术详情

分类 Payload
质量 730.00 kg
干质量 700.00 kg
总质量 730.00 kg
长度 0.30 m
直径 4.10 m
跨度 29.00 m
形状 Box + pan
制造商 SPXS
平台类型 Starlink V2M
阶段状态 In Orbit
所有者/国家 SPXS/US

大型星座

Loading constellations...